Wetbulb
37.66 35.33 33.19 36.99 35.98 34.48 33.61 32.18 32.16 34.68 38.30 36.57 36.07 36.13 40.10 40.52 38.33 39.41 41.24 41.38 41.91 41.90 44.80 41.88 42.59 43.95 44.48 44.97 45.70 49.19 47.89 46.57 46.55 46.14 44.04 44.15 41.31 40.31 40.31 42.30 43.44 42.94 42.44 41.70
35.15 32.75 38.19 38.87 37.37 36.35 33.93 32.42 32.37 35.82 37.18 36.80 35.70 34.99 38.17 40.97 39.50 42.06 44.12 44.64 43.84 42.24 39.34 39.64 41.46 42.57 43.67 44.44 44.81 47.33 47.52 45.84 46.57 47.17 43.45 42.26 39.69 37.03 37.40 37.29 38.05 40.45 39.60 38.97
34.17 36.51 38.50 38.55 35.07 34.34 33.22 32.84 32.09 34.20 35.38 34.69 33.33 32.50 34.45 38.54 40.44 42.21 41.96 44.04 43.77 41.50 38.89 38.76 39.82 41.54 43.66 44.25 43.91 45.08 45.99 45.49 46.08 41.73 39.28 37.68 37.25 37.06 35.42 35.46 35.16 35.20 35.76 35.71
35.23 37.84 37.28 35.40 34.44 36.42 31.10 35.44 35.09 33.92 33.09 28.96 33.52 28.22 34.43 38.09 39.12 39.11 42.11 40.87 40.58 40.19 39.54 39.10 39.85 40.48 42.66 43.81 43.83 44.80 44.73 44.98 42.16 41.35 39.94 40.99 39.98 38.53 36.08 35.06 33.98 33.70 34.49 33.68
35.08 35.33 34.96 34.32 35.41 37.15 33.83 35.52 34.16 33.09 31.22 29.45 29.77 28.89 33.32 34.95 36.06 40.00 41.49 40.99 40.64 39.62 38.82 37.97 39.15 40.76 42.52 43.85 43.44 44.02 44.60 43.05 41.40 42.32 41.91 42.02 40.29 35.99 35.26 34.02 32.77 32.56 32.57 32.75
35.17 37.10 37.89 37.73 36.86 37.53 36.85 34.88 33.62 31.25 29.72 25.93 30.16 31.63 34.25 35.25 37.44 38.47 39.38 39.32 39.30 39.08 38.05 37.48 38.70 40.23 41.67 43.84 43.32 43.22 42.75 40.57 40.60 40.86 40.95 41.05 35.93 34.29 32.49 32.06 32.15 31.37 31.51 31.35
33.37 35.01 36.81 38.06 34.99 36.02 34.66 33.40 27.33 24.96 23.69 26.20 28.83 28.09 35.67 38.74 38.69 38.57 39.63 38.72 38.74 37.43 36.59 36.11 37.20 39.03 41.02 41.82 42.26 42.65 41.08 38.78 39.59 39.59 39.24 37.91 36.05 34.90 33.52 32.71 31.80 30.28 30.24 29.31
31.17 29.31 34.67 37.22 36.96 34.62 32.87 33.61 28.21 20.86 22.08 26.18 28.89 26.18 33.01 36.68 38.04 37.79 37.82 37.42 37.15 36.20 35.54 35.46 36.62 39.51 40.42 41.22 42.72 42.49 40.23 38.40 38.84 38.39 36.12 36.25 35.32 34.20 33.25 32.79 31.44 30.80 29.83 28.62
30.77 30.81 34.18 34.94 36.00 39.24 32.31 30.26 35.19 28.52 15.91 22.85 28.17 30.95 35.60 37.63 37.68 37.62 37.01 36.19 36.15 35.05 34.63 34.84 35.82 38.65 40.57 41.63 42.06 40.91 39.18 38.15 38.03 36.69 35.52 34.70 34.43 33.58 32.47 31.75 31.53 30.14 29.29 28.21
36.55 30.63 32.61 34.12 35.83 34.87 34.68 36.60 30.52 29.96 23.14 22.12 26.04 26.98 31.66 35.31 36.12 36.27 35.78 35.76 35.35 33.62 33.90 33.94 34.80 36.43 39.14 40.57 40.63 38.85 38.35 37.09 36.27 35.39 35.11 34.10 33.78 33.29 31.63 31.01 28.87 28.39 27.82 27.25
37.24 35.55 31.59 33.69 31.86 31.77 32.09 31.13 31.88 33.07 29.21 23.17 19.84 28.80 33.35 36.27 36.95 36.79 35.76 36.15 35.15 34.00 33.32 33.31 33.90 35.35 36.65 36.52 37.31 36.88 36.87 36.22 34.87 34.40 33.98 32.72 32.45 31.38 30.65 29.70 29.04 27.97 26.99 26.12
38.77 37.17 29.34 29.87 33.24 36.71 34.17 34.31 34.96 31.07 25.58 26.89 25.98 30.59 35.19 35.69 36.35 36.44 36.40 35.35 34.43 33.67 33.20 32.86 32.98 33.72 34.68 35.24 36.02 35.94 36.00 34.79 34.46 34.46 33.38 32.06 31.25 30.20 29.55 28.83 28.47 27.51 26.39 25.80
39.75 33.44 29.49 31.15 35.13 36.20 33.11 33.78 37.21 34.67 32.55 26.21 27.09 31.15 33.55 33.89 35.01 35.39 35.24 34.33 33.56 32.44 32.04 31.76 31.34 31.60 33.19 34.95 34.87 35.10 34.78 34.23 33.79 33.63 32.41 31.01 29.78 29.48 29.01 28.22 27.50 26.92 25.59 24.58
42.57 34.72 32.44 28.50 31.06 34.48 31.98 32.04 34.69 35.85 31.92 27.11 31.50 33.54 35.06 33.63 34.75 35.12 35.43 35.54 34.04 32.35 31.86 31.21 30.68 31.25 32.19 33.75 34.28 33.87 33.53 34.04 33.16 32.72 31.71 30.03 29.30 29.37 28.61 27.69 26.48 25.77 25.29 24.04
40.49 31.72 34.73 34.78 33.46 34.09 32.28 32.54 33.79 33.23 34.65 32.23 35.20 33.47 38.36 38.73 36.63 39.48 38.73 36.57 33.78 32.33 30.75 31.06 30.94 31.08 31.33 31.23 31.78 32.53 32.86 32.62 32.62 31.72 30.74 29.69 29.59 29.62 28.31 26.58 25.98 25.34 24.68 24.33
39.03 32.41 33.98 33.38 34.91 32.92 31.96 32.78 33.08 34.37 35.25 35.38 36.56 34.30 42.50 40.65 40.79 36.85 39.68 38.22 35.75 34.16 33.66 32.76 31.40 30.82 30.60 31.16 31.23 31.62 31.64 31.67 31.74 30.62 29.61 29.36 28.78 27.84 26.56 25.92 24.90 24.13 23.58 23.04
34.45 32.64 31.60 29.80 34.45 32.42 29.27 33.74 32.11 32.65 35.76 35.81 32.11 37.49 42.29 37.62 37.80 38.57 39.26 37.91 37.62 37.20 36.77 34.10 33.01 32.32 32.09 31.62 31.88 30.71 30.97 30.36 30.18 29.47 28.97 28.01 27.69 26.42 25.78 25.21 24.19 23.36 22.42 22.53
33.95 32.67 31.53 28.69 29.69 23.72 31.92 31.71 37.87 36.51 37.04 37.28 36.11 38.62 40.20 38.10 39.15 39.64 39.63 38.58 38.29 38.01 37.68 37.15 36.18 33.68 32.63 32.07 31.59 31.04 30.15 29.31 29.16 28.20 26.97 26.43 26.30 25.60 25.22 24.25 23.45 23.14 22.89 22.34
37.34 34.20 30.44 27.31 26.91 29.64 31.35 30.90 31.51 33.09 34.46 39.02 37.83 39.34 40.65 41.84 34.83 38.93 37.85 39.20 39.96 38.93 38.63 38.13 36.76 33.97 31.01 30.37 30.62 29.67 28.33 28.55 28.32 27.49 26.79 26.21 26.00 25.04 24.26 23.47 23.62 23.75 23.04 22.57
33.23 35.25 31.84 29.86 25.33 22.63 29.34 27.01 29.27 33.24 31.13 35.28 37.94 39.19 39.15 35.31 31.58 38.39 35.06 33.70 33.85 33.55 33.53 34.10 33.45 29.80 28.98 28.44 29.18 28.70 27.60 27.57 27.48 27.52 27.29 26.83 26.19 25.04 23.97 24.41 24.11 24.17 23.36 22.16
25.82 28.87 27.86 28.73 27.02 30.18 32.68 29.22 31.81 27.71 27.26 29.28 30.81 34.27 30.44 33.48 35.23 33.75 31.88 31.35 31.40 31.99 32.27 30.31 28.52 28.25 27.98 28.18 28.39 27.50 27.16 26.85 28.97 28.29 26.77 25.53 25.55 24.69 25.13 25.12 24.11 23.17 22.43 21.43
25.23 24.41 23.27 26.89 25.29 22.82 32.36 30.21 29.80 31.21 30.21 29.42 29.84 31.58 32.52 32.89 33.34 32.98 32.40 31.13 30.69 31.21 30.66 28.21 27.10 26.68 26.66 27.55 27.71 26.68 26.31 27.94 27.83 26.80 25.76 25.56 25.82 25.66 25.47 24.91 23.43 22.89 22.40 20.90
24.64 28.02 25.66 27.01 27.89 31.79 31.39 32.00 35.05 31.30 30.74 29.34 29.77 30.36 31.96 31.96 32.25 31.70 31.04 29.60 29.01 28.37 30.12 28.31 26.82 25.32 25.56 26.77 27.69 26.10 26.25 27.55 27.05 26.66 25.88 25.79 26.29 26.41 26.70 25.56 23.62 22.33 21.95 21.27
22.75 26.54 25.84 25.88 29.82 30.95 32.08 31.70 31.19 30.83 29.39 30.91 29.01 28.64 30.61 30.92 30.55 29.81 29.04 28.67 28.28 27.72 27.45 23.94 24.19 23.69 22.98 22.87 24.84 24.66 25.51 26.44 26.30 25.54 25.46 25.72 25.17 24.92 25.45 25.66 24.40 23.20 21.39 20.53
24.78 25.34 21.67 21.87 27.84 29.03 31.24 31.83 32.40 31.13 31.54 28.91 27.82 27.92 30.00 29.84 27.94 28.63 27.93 27.10 27.03 26.54 22.24 21.61 22.79 22.15 21.34 20.53 20.98 21.68 23.54 25.29 24.57 23.58 21.88 22.53 23.47 23.28 23.20 24.40 23.93 23.01 23.26 23.64
24.14 26.04 23.83 23.89 29.43 29.43 30.30 29.93 30.96 30.55 30.88 29.64 28.39 27.30 26.44 27.96 28.93 25.41 24.37 25.93 23.62 22.63 20.59 19.71 17.89 17.63 16.14 16.92 17.62 16.84 21.17 23.99 22.90 20.84 20.77 21.85 22.25 22.41 22.34 22.29 21.26 27.20 26.66 26.82
MSLP
1018.70 1019.46 1019.78 1019.25 1019.38 1019.79 1020.06 1020.49 1020.39 1020.00 1019.39 1019.76 1019.37 1019.03 1017.99 1017.72 1017.93 1017.31 1016.59 1016.57 1016.14 1016.07 1016.08 1017.47 1018.46 1019.32 1020.16 1020.85 1021.26 1021.52 1022.02 1022.51 1022.93 1023.65 1024.23 1024.77 1025.16 1025.71 1026.04 1025.89 1026.37 1026.18 1026.85 1027.27
1019.47 1019.19 1018.80 1019.05 1019.51 1019.92 1020.20 1020.50 1020.53 1019.97 1019.61 1019.85 1019.14 1018.66 1017.78 1016.84 1016.41 1015.45 1015.07 1014.75 1014.39 1015.61 1016.50 1017.42 1017.99 1018.84 1019.47 1020.10 1020.64 1021.01 1021.44 1022.05 1022.53 1022.99 1023.73 1024.22 1024.97 1025.88 1026.28 1026.57 1026.65 1026.87 1027.18 1027.61
1018.66 1018.36 1018.35 1018.92 1019.56 1020.09 1020.33 1020.45 1020.53 1020.47 1020.05 1019.87 1019.61 1018.01 1016.82 1015.15 1014.85 1014.46 1014.10 1013.31 1014.21 1015.17 1016.16 1016.82 1017.59 1017.92 1018.83 1019.41 1019.93 1020.52 1021.12 1021.80 1022.40 1022.93 1023.74 1024.54 1025.22 1025.97 1026.42 1026.76 1027.14 1027.37 1027.26 1027.77
1018.77 1018.14 1018.48 1019.04 1019.33 1019.67 1020.09 1019.85 1020.20 1020.64 1021.07 1020.73 1019.84 1017.88 1016.38 1014.95 1014.26 1013.90 1012.65 1013.35 1013.83 1014.77 1015.31 1016.05 1017.01 1017.66 1018.11 1018.89 1019.75 1020.20 1020.75 1021.33 1021.95 1022.47 1023.26 1023.68 1024.20 1025.21 1025.84 1026.50 1027.07 1027.27 1027.49 1027.89
1017.60 1017.91 1018.36 1018.71 1018.57 1019.14 1019.52 1019.81 1020.40 1020.83 1021.27 1021.22 1020.21 1019.25 1015.08 1014.74 1014.49 1013.49 1012.51 1012.97 1013.71 1014.52 1015.16 1015.95 1016.74 1017.46 1018.27 1018.89 1019.34 1019.88 1020.44 1021.12 1021.81 1022.36 1022.84 1023.33 1023.89 1024.78 1025.55 1026.37 1027.02 1027.29 1027.97 1028.02
1017.64 1017.63 1017.68 1017.78 1018.42 1018.67 1019.47 1019.97 1020.76 1021.42 1021.68 1021.29 1019.59 1018.71 1014.70 1014.16 1013.36 1012.75 1012.58 1013.26 1014.10 1014.72 1015.31 1016.13 1016.75 1017.45 1018.08 1018.81 1019.41 1019.79 1020.24 1020.90 1021.62 1022.21 1022.86 1023.42 1024.04 1024.83 1025.82 1026.54 1026.95 1027.52 1028.18 1028.29
1017.71 1017.58 1017.33 1017.44 1018.50 1019.19 1019.33 1020.06 1021.27 1021.94 1022.16 1020.37 1019.37 1018.71 1014.12 1013.49 1012.77 1012.81 1012.81 1013.70 1014.47 1015.07 1015.85 1016.64 1017.16 1017.63 1017.97 1018.46 1018.97 1019.55 1020.05 1020.76 1021.30 1021.81 1022.40 1023.00 1023.75 1024.54 1025.31 1026.05 1026.80 1027.59 1028.22 1029.00
1017.21 1017.35 1016.97 1016.81 1016.73 1017.71 1018.96 1018.97 1019.70 1020.62 1021.67 1020.52 1019.70 1017.20 1013.74 1012.79 1012.43 1012.81 1013.43 1013.88 1014.42 1015.32 1016.29 1017.00 1017.68 1017.98 1018.20 1018.57 1018.87 1019.40 1020.03 1020.79 1021.36 1021.84 1022.41 1023.02 1023.62 1024.29 1025.07 1025.82 1026.64 1027.51 1028.09 1028.52
1016.53 1016.41 1016.09 1016.20 1016.30 1016.55 1018.25 1018.44 1018.21 1019.69 1021.60 1021.11 1018.18 1015.59 1013.80 1012.58 1012.23 1012.77 1013.39 1014.04 1014.83 1015.65 1016.46 1017.23 1017.90 1018.20 1018.32 1018.46 1018.79 1019.27 1019.79 1020.49 1021.05 1021.68 1022.35 1023.02 1023.63 1024.14 1024.84 1025.68 1026.48 1027.45 1028.26 1028.95
1015.09 1016.03 1016.10 1016.37 1016.36 1016.63 1016.64 1016.88 1018.27 1018.98 1020.29 1020.33 1017.31 1015.93 1013.95 1012.77 1012.41 1012.83 1013.41 1014.23 1014.98 1015.81 1016.72 1017.29 1017.93 1018.22 1018.34 1018.40 1018.78 1019.31 1019.64 1020.21 1020.94 1021.74 1022.44 1023.08 1023.63 1024.19 1024.81 1025.37 1026.31 1027.19 1028.25 1029.07
1014.85 1015.49 1016.58 1016.49 1016.03 1015.85 1016.75 1016.69 1016.99 1017.61 1018.33 1018.38 1017.50 1014.02 1012.26 1011.80 1012.03 1012.68 1013.43 1014.01 1014.99 1015.86 1016.74 1017.35 1017.91 1018.09 1018.33 1018.45 1018.73 1019.13 1019.56 1019.97 1020.62 1021.16 1021.85 1022.88 1023.89 1024.75 1025.47 1025.95 1026.43 1027.07 1028.03 1028.55
1014.94 1015.43 1016.08 1015.93 1015.78 1015.61 1015.29 1015.05 1015.69 1016.49 1017.78 1017.71 1016.81 1012.17 1011.59 1011.61 1011.75 1012.41 1013.23 1014.13 1014.70 1015.52 1016.24 1016.76 1017.58 1018.01 1018.37 1018.57 1018.67 1018.85 1019.31 1019.88 1020.41 1021.01 1021.62 1022.11 1022.73 1023.78 1024.98 1026.03 1026.71 1027.31 1027.92 1028.82
1015.17 1015.56 1015.79 1016.13 1016.41 1015.92 1015.43 1015.07 1014.96 1015.61 1016.13 1016.00 1015.98 1011.58 1011.74 1011.86 1012.07 1012.48 1013.07 1013.91 1014.38 1015.49 1016.28 1016.85 1017.33 1017.56 1017.57 1017.88 1018.28 1018.84 1019.19 1019.59 1020.22 1020.80 1021.49 1022.27 1022.75 1023.71 1024.52 1025.03 1026.26 1027.42 1028.10 1028.82
1014.43 1015.18 1014.71 1015.12 1014.73 1014.32 1015.24 1014.97 1014.73 1014.86 1015.26 1014.55 1012.85 1011.37 1011.11 1011.50 1011.79 1012.08 1012.63 1013.15 1013.98 1015.03 1015.79 1016.11 1016.52 1016.88 1016.94 1017.13 1017.51 1017.84 1018.38 1019.35 1020.28 1020.91 1021.31 1021.83 1022.50 1022.86 1023.75 1025.13 1026.00 1026.63 1027.61 1028.89
1014.58 1014.70 1014.58 1013.85 1013.81 1013.97 1013.58 1013.39 1013.70 1013.87 1013.18 1013.71 1009.89 1011.33 1008.34 1010.43 1010.92 1011.02 1011.71 1012.43 1013.47 1014.37 1015.09 1015.36 1015.64 1015.82 1016.30 1016.65 1016.93 1017.37 1017.69 1018.16 1018.98 1020.69 1021.29 1021.86 1022.39 1022.87 1024.11 1024.58 1025.34 1026.70 1027.64 1028.28
1015.35 1014.62 1014.48 1013.75 1013.61 1014.00 1013.86 1013.09 1012.37 1012.31 1012.07 1012.20 1010.37 1009.92 1007.21 1008.93 1009.58 1010.65 1011.16 1011.78 1012.69 1013.14 1013.60 1013.95 1014.46 1015.02 1015.30 1015.50 1016.08 1016.68 1017.20 1017.70 1018.49 1019.10 1021.04 1021.57 1022.31 1023.05 1024.05 1024.83 1025.87 1026.14 1027.42 1028.56
1015.05 1015.30 1014.89 1013.67 1013.47 1013.57 1012.92 1011.60 1011.89 1011.48 1010.99 1010.72 1010.28 1007.14 1007.28 1009.06 1009.80 1010.33 1010.41 1011.18 1011.52 1011.89 1012.18 1012.69 1012.64 1012.99 1013.57 1014.38 1014.93 1015.70 1016.50 1017.33 1018.41 1019.07 1019.76 1020.73 1021.92 1022.63 1023.75 1024.36 1025.33 1026.23 1026.96 1027.96
1015.34 1015.40 1015.01 1013.74 1013.78 1012.70 1011.32 1011.05 1011.05 1011.04 1010.35 1010.32 1009.56 1007.63 1007.39 1008.64 1009.14 1009.25 1009.19 1010.12 1010.53 1010.71 1010.95 1011.17 1011.53 1011.75 1012.41 1013.57 1014.18 1014.89 1015.80 1016.49 1017.50 1018.45 1019.09 1020.35 1021.50 1022.26 1023.23 1024.16 1024.81 1025.70 1026.55 1027.25
1014.63 1014.76 1014.08 1013.59 1012.69 1011.63 1011.18 1010.76 1011.37 1011.00 1009.36 1009.32 1009.10 1008.39 1007.83 1007.75 1009.28 1008.33 1009.13 1008.86 1009.04 1009.57 1010.05 1010.36 1010.63 1010.96 1011.84 1012.83 1013.60 1014.61 1015.53 1016.01 1016.95 1017.76 1018.33 1019.49 1021.09 1022.27 1023.14 1023.73 1024.56 1025.19 1026.30 1027.28
1014.31 1014.07 1013.84 1013.28 1012.08 1011.05 1009.94 1009.68 1009.87 1010.10 1009.41 1008.09 1008.74 1008.37 1008.00 1008.73 1009.89 1008.37 1008.54 1008.93 1009.59 1010.00 1010.17 1010.26 1010.58 1011.12 1011.84 1012.69 1013.30 1014.35 1015.03 1015.57 1016.20 1017.02 1017.85 1019.05 1020.20 1021.33 1022.28 1023.37 1024.11 1025.10 1025.92 1026.65
1015.00 1014.16 1013.14 1012.44 1011.98 1011.14 1010.37 1010.30 1010.41 1010.53 1010.04 1008.80 1008.64 1008.60 1008.87 1009.49 1009.74 1009.45 1009.57 1009.59 1009.97 1010.16 1010.29 1010.42 1010.99 1011.73 1011.98 1012.62 1013.27 1014.13 1014.73 1015.42 1015.87 1016.58 1017.63 1018.79 1019.80 1020.54 1021.38 1022.73 1023.82 1024.78 1025.43 1026.24
1015.04 1014.40 1013.80 1012.86 1011.96 1011.36 1010.55 1011.03 1010.94 1010.35 1009.65 1009.37 1009.27 1009.18 1009.43 1009.75 1009.99 1010.09 1009.99 1010.12 1010.31 1010.49 1010.80 1011.08 1011.64 1011.98 1012.31 1012.77 1013.43 1013.89 1014.47 1015.12 1015.85 1016.92 1017.83 1018.79 1019.55 1020.13 1021.06 1021.82 1023.41 1024.16 1024.92 1025.98
1015.05 1014.10 1014.00 1013.25 1011.94 1011.30 1011.16 1011.34 1010.66 1010.34 1010.11 1010.00 1009.87 1009.24 1009.60 1009.91 1010.01 1010.20 1010.53 1010.65 1010.87 1011.30 1011.63 1011.79 1011.89 1012.19 1012.60 1012.96 1013.31 1013.88 1014.54 1015.06 1015.98 1016.92 1017.73 1018.63 1019.37 1020.16 1020.94 1021.71 1022.83 1023.95 1024.48 1025.48
1014.57 1013.89 1013.73 1013.14 1011.38 1011.08 1010.92 1010.59 1010.45 1010.09 1010.38 1010.53 1010.04 1010.07 1010.09 1010.05 1010.25 1010.43 1010.84 1011.44 1011.48 1011.66 1011.90 1012.17 1012.57 1012.72 1012.99 1013.24 1013.87 1014.21 1014.59 1015.26 1015.91 1016.77 1017.66 1018.40 1018.97 1019.87 1020.68 1021.57 1022.42 1023.05 1023.71 1024.63
1014.27 1014.03 1013.34 1012.45 1011.40 1010.96 1010.55 1010.11 1009.86 1010.14 1010.24 1010.61 1010.66 1010.62 1010.20 1010.01 1010.34 1010.78 1010.30 1011.54 1012.58 1012.33 1012.41 1012.53 1013.24 1013.10 1013.47 1013.80 1014.28 1014.66 1015.03 1015.30 1016.13 1016.82 1017.56 1018.51 1019.12 1019.56 1020.28 1020.80 1021.15 1021.66 1022.22 1022.67
1013.18 1012.53 1012.51 1011.22 1010.86 1010.69 1010.21 1009.82 1009.88 1009.91 1010.16 1010.34 1010.98 1010.76 1010.65 1011.11 1011.29 1011.40 1011.76 1012.19 1012.62 1013.13 1013.29 1013.32 1013.36 1013.78 1014.43 1014.58 1015.03 1015.42 1015.38 1015.62 1016.47 1017.16 1017.86 1018.33 1018.85 1019.51 1020.16 1020.59 1021.09 1021.40 1021.78 1022.30
Wind_Speed
2 4 8 16 7 4 6 5 5 5 4 4 9 10 16 6 6 13 15 15 17 18 10 7 10 10 8 7 9 10 10 9 8 5 4 3 4 3 4 5 3 7 8 10
4 9 12 6 7 5 3 4 5 6 3 6 8 12 14 15 11 15 19 18 21 5 4 7 11 12 12 13 11 12 11 11 8 6 4 3 5 4 4 4 5 6 7 8
10 6 4 8 5 6 4 6 5 8 5 3 6 8 7 9 11 14 17 22 9 6 10 9 12 15 13 15 14 12 12 11 8 8 7 6 7 5 3 5 5 4 7 6
7 3 6 4 4 7 5 8 5 3 2 5 3 9 5 7 9 5 18 4 8 8 7 7 11 12 15 13 11 11 13 12 10 11 8 11 6 6 4 4 5 5 7 7
7 9 6 5 8 8 6 5 6 3 4 4 3 5 3 2 5 14 8 5 4 6 7 7 10 9 9 11 12 11 12 11 11 10 9 7 8 5 7 7 9 9 5 8
2 1 6 7 3 4 10 6 5 4 2 5 9 8 6 6 7 6 2 5 2 5 2 2 4 8 10 10 10 11 12 12 10 9 8 7 11 11 9 8 8 6 5 5
3 4 3 5 7 4 1 6 1 3 1 9 1 4 9 9 7 6 2 4 7 4 1 3 6 8 11 13 12 11 12 12 11 11 10 9 10 11 11 11 8 9 7 4
10 9 12 7 9 10 9 8 8 8 5 5 1 10 8 9 7 5 5 5 6 4 1 3 5 7 10 14 12 12 12 10 11 10 9 9 11 7 8 9 8 6 6 7
7 7 1 3 3 10 8 8 5 6 2 2 6 8 9 11 11 6 5 3 5 3 2 4 5 7 9 13 12 12 13 11 12 11 10 10 10 11 10 11 9 6 7 7
5 3 2 3 3 2 6 8 4 2 5 7 6 7 8 6 6 5 3 3 4 2 3 4 5 6 6 6 9 9 10 11 11 11 9 9 11 11 11 11 11 12 9 9
5 5 1 4 8 12 4 5 2 5 5 6 3 9 9 10 7 7 3 4 4 4 4 4 5 5 6 6 9 10 10 12 12 12 11 11 10 10 9 9 11 12 11 11
4 4 6 8 2 3 1 7 7 6 5 4 2 13 2 5 7 6 5 6 5 4 6 6 6 6 6 8 9 11 11 12 12 12 12 13 13 13 13 12 12 12 13 11
5 4 3 1 3 3 4 4 11 4 3 8 7 10 2 1 5 5 6 7 6 5 5 5 6 9 10 10 10 10 10 11 11 12 13 12 13 13 13 14 13 12 12 11
15 4 6 6 5 6 6 7 10 15 10 5 20 9 6 5 7 6 8 6 7 7 8 7 7 9 10 11 11 11 11 10 10 11 12 13 13 14 14 13 13 14 14 13
7 7 9 14 8 5 6 13 19 20 24 14 23 18 28 14 10 13 10 8 7 8 8 10 10 10 10 11 11 11 11 12 13 12 12 12 12 12 12 13 14 13 12 12
1 4 4 14 13 9 7 9 18 25 22 21 23 20 14 10 10 1 9 7 9 9 11 12 11 11 13 14 13 12 12 13 13 14 12 11 12 12 12 12 12 14 12 11
4 4 4 11 7 12 14 27 11 9 15 22 22 32 20 6 8 8 12 10 11 11 13 11 15 16 14 15 15 15 13 12 13 12 12 13 13 13 14 14 14 14 14 14
7 6 3 8 2 12 4 3 17 21 20 17 16 24 20 7 7 12 10 8 11 11 10 11 10 9 11 10 12 12 14 15 15 13 13 13 14 14 14 15 16 15 14 14
17 10 6 7 10 8 7 7 9 12 22 21 23 24 26 24 2 17 9 11 10 6 5 8 8 7 8 12 12 13 13 14 14 15 15 15 14 14 14 16 16 13 12 11
7 13 10 8 9 14 9 4 2 5 14 8 16 24 23 3 6 14 4 1 3 4 4 5 4 3 7 8 12 13 13 14 14 13 13 14 15 16 16 15 14 12 12 12
2 4 14 15 12 5 6 2 3 6 7 4 2 7 2 6 5 1 1 1 1 2 5 3 2 5 6 9 11 11 11 12 10 11 12 14 14 15 15 14 11 12 12 10
5 3 2 3 7 7 5 4 9 4 3 4 2 1 4 5 6 5 5 1 2 3 3 3 5 5 6 9 10 9 10 8 9 11 12 13 13 11 12 16 12 12 12 12
5 5 2 5 4 5 4 2 8 2 2 2 4 2 3 4 3 3 3 1 0 1 1 0 4 5 4 6 7 9 7 10 11 12 12 11 12 12 12 14 13 10 11 10
4 4 5 1 8 11 8 5 7 4 3 8 5 4 5 4 3 4 2 3 3 2 1 1 3 5 5 4 5 5 8 10 12 11 11 11 12 11 11 9 9 10 11 10
8 4 4 6 8 8 10 10 7 7 9 9 5 5 6 3 3 5 4 2 7 2 1 2 4 3 3 3 4 5 7 10 10 9 8 9 8 10 10 10 11 12 12 15
7 15 11 15 12 5 6 3 3 6 8 6 9 6 3 3 6 3 3 3 3 3 1 2 3 4 3 4 5 4 6 9 10 9 8 8 8 8 8 8 6 19 16 21
Wind_Direction
29 116 181 212 187 141 137 178 210 239 239 185 228 240 259 247 230 259 256 248 245 232 241 170 178 173 170 173 171 174 158 153 145 145 121 132 118 102 78 74 104 116 124 127
61 225 222 111 153 153 158 191 246 282 246 190 271 249 249 255 236 231 249 253 247 229 160 176 180 177 183 181 180 178 169 165 165 152 125 135 127 86 108 105 88 114 126 133
179 198 156 156 153 161 201 194 201 229 322 238 314 271 235 269 243 249 248 248 280 226 208 200 191 192 179 189 185 173 167 163 160 129 116 102 95 100 99 107 113 117 117 120
238 216 137 159 185 150 230 202 175 193 63 255 12 288 258 240 251 254 253 228 242 228 222 198 195 190 190 190 171 167 165 165 151 152 154 168 157 158 159 138 132 116 120 116
234 165 160 173 196 163 221 129 162 132 179 355 317 276 238 142 267 255 277 306 298 264 231 210 200 197 185 170 171 164 161 155 155 163 166 163 144 120 129 133 138 125 123 128
234 137 167 190 112 152 150 84 62 63 96 268 197 195 150 187 210 254 198 111 349 337 290 216 158 145 157 162 165 162 160 156 156 160 161 165 147 144 141 151 149 150 153 138
124 218 187 141 91 43 155 113 296 327 0 241 19 252 255 280 228 234 253 262 285 334 17 181 162 161 165 177 167 166 160 160 163 162 160 153 154 157 162 161 156 150 151 147
182 245 165 191 177 169 199 172 166 209 204 266 147 240 250 235 283 268 292 268 301 309 212 206 182 176 183 189 177 169 164 161 166 161 149 148 150 154 153 156 144 143 151 137
160 260 258 166 146 151 195 208 165 104 46 24 224 284 278 258 277 274 253 301 295 280 189 188 182 186 187 187 179 172 163 164 167 162 154 155 153 151 152 139 136 130 127 128
216 272 197 186 122 65 167 164 105 318 169 239 264 271 229 252 193 221 132 319 316 137 163 172 186 181 188 182 174 165 166 165 162 158 161 160 159 155 149 144 141 139 140 142
150 192 139 124 205 169 150 207 129 125 157 179 285 261 218 221 178 170 176 325 296 189 197 195 199 187 179 165 167 168 169 164 164 163 158 153 153 148 147 148 149 148 144 140
177 162 200 199 295 324 66 196 153 182 211 235 156 259 192 203 160 163 205 228 189 177 189 182 195 184 181 187 184 179 174 171 175 167 162 160 155 155 157 161 158 155 149 149
161 203 136 230 1 334 221 202 201 125 97 202 160 261 73 172 256 223 196 198 159 181 197 203 194 197 192 193 190 189 184 179 170 167 164 163 162 163 167 161 157 159 150 149
147 203 173 204 240 150 182 205 210 206 213 148 229 251 234 200 222 195 198 187 184 192 204 206 208 212 207 200 195 187 178 176 172 172 172 171 172 169 166 162 161 158 157 156
184 209 217 233 226 201 207 191 200 203 216 205 249 228 247 215 210 231 203 207 177 211 219 221 217 213 209 201 196 191 182 170 164 177 179 179 174 167 165 161 160 157 159 158
185 303 220 244 240 212 227 229 204 211 219 228 249 252 249 190 219 205 241 218 219 222 226 222 214 211 212 208 203 193 185 175 167 167 181 171 168 162 165 161 160 151 149 148
166 210 194 264 263 219 227 227 202 205 219 214 229 241 260 223 200 230 244 207 225 228 226 217 216 213 212 205 193 193 181 161 172 171 169 167 167 165 170 163 160 158 155 153
246 237 232 266 85 260 253 297 223 226 232 229 261 261 270 215 216 236 231 188 225 229 228 228 230 218 210 196 188 174 172 173 174 174 166 164 167 167 165 165 165 162 166 170
217 220 242 251 255 290 294 198 169 181 247 233 233 251 260 267 107 267 187 214 229 239 237 234 224 206 170 178 172 167 171 172 174 178 171 167 165 166 166 169 171 167 166 172
227 232 222 231 253 252 231 237 178 91 241 231 206 237 245 236 252 270 143 115 276 295 272 273 249 160 148 158 156 166 175 175 184 178 169 165 165 167 170 172 169 170 172 167
176 208 228 234 244 257 273 213 182 161 242 327 294 255 232 208 231 322 29 173 315 290 320 33 130 177 162 152 157 170 167 185 173 162 160 164 170 169 169 166 163 167 168 154
184 204 220 251 233 262 181 112 171 214 266 305 281 209 247 246 282 278 283 244 3 355 357 123 149 152 150 152 157 161 175 157 150 153 159 167 171 168 168 165 165 168 169 177
273 198 190 229 236 201 244 350 312 15 328 299 276 245 222 232 260 303 291 247 262 316 288 104 153 140 154 159 164 160 161 147 145 153 161 167 168 172 170 169 173 176 180 189
273 178 238 218 239 239 235 241 222 200 204 279 257 269 207 221 256 217 206 268 232 207 139 43 137 163 170 160 142 138 144 144 151 157 164 165 168 169 171 175 179 180 182 190
229 140 231 268 288 303 277 238 241 209 222 258 286 258 261 211 240 244 160 207 273 237 342 73 200 158 175 127 125 139 149 149 151 148 146 159 168 172 177 189 185 192 199 196
186 227 227 249 243 198 256 314 306 225 232 235 234 245 261 266 258 193 221 226 182 231 245 94 75 113 144 134 142 152 154 148 146 145 158 169 169 174 179 185 189 210 209 211